User: anonymous   Login
Location: Thompson
(55.7500°N, 97.8670°W)
Time: 06:56:00
(UTC-06:00)
Language:

Cosmos 1833 Rocket - Orbit

View from above orbital plane
View from above orbital plane
View from above satellite
View from above satellite

Ground track
Ground track

The orbit data is extracted from the following two-line orbital elements,

1 17590U 87027B   14326.11773785  .00000244  00000-0  14600-3 0  8309
2 17590 071.0038 325.2093 0007429 288.8606 071.1712 14.16662724431261
Epoch (UTC): 22 November 2014 02:49:32
Eccentricity: 0.0007429
inclination: 71.0038°
perigee height: 831 km
apogee height: 842 km
right ascension of ascending node: 325.2093°
argument of perigee: 288.8606°
revolutions per day: 14.16662724
mean anomaly at epoch: 71.1712°
orbit number at epoch: 43126

The dashed part of the orbit path shows where the satellite is in the earth's shadow,  

DLR